Location: Bas Lanzent
(48.1360°N, 3.5871°W)
Time: 11:20:20
(UTC+00:00)

PAYLOAD A - Pass Details

Date: 18 February 2020
Orbit: 693 x 831 km, 98.3° (Epoch: 09 April)

Event Time Altitude Azimuth Distance (km) Brightness Sun altitude
Rises 05:07:42 0° 8° (N) 3,126 7.4 -22.2°
Reaches altitude 10° 05:10:01 10° 3° (N) 2,218 6.5 -21.8°
Maximum altitude 05:14:38 45° 291° (WNW) 1,002 4.2 -21.0°
Enters shadow 05:14:42 45° 288° (WNW) 1,003 4.2 -21.0°
